Location: Azul
(36.7830°S, 59.8500°W)
Time: 18:33:05
(UTC-03:00)

AO-109 - Pass Details

Date: 01 November 2021
Orbit: 474 x 522 km, 60.7° (Epoch: 06 December)

Event Time Altitude Azimuth Distance (km) Brightness Sun altitude
Rises 04:48:00 0° 205° (SSW) 2,688 ? -12.9°
Reaches altitude 10° 04:50:33 10° 190° (S) 1,791 ? -12.4°
Maximum altitude 04:53:52 24° 135° (SE) 1,130 ? -11.8°
Drops below altitude 10° 04:57:08 10° 80° (E) 1,765 ? -11.3°
Sets 04:59:37 0° 65° (ENE) 2,640 ? -10.8°
